GFSMW_prec_pwat_168.txt.gz
Precipitable_Water
0.50 0.54 0.57 0.59 0.58 0.57 0.57 0.56 0.54 0.54 0.54 0.53 0.52 0.52 0.51 0.54 0.56 0.57 0.56 0.54 0.52 0.49 0.45 0.41 0.40 0.39 0.36 0.35 0.35 0.34 0.32 0.32 0.33 0.28 0.26 0.30 0.35 0.40 0.39 0.37 0.39 0.48 0.50
0.50 0.55 0.58 0.61 0.62 0.61 0.60 0.58 0.57 0.55 0.55 0.55 0.56 0.57 0.55 0.56 0.56 0.56 0.55 0.55 0.52 0.48 0.45 0.42 0.40 0.39 0.38 0.36 0.36 0.35 0.32 0.34 0.35 0.30 0.28 0.22 0.24 0.33 0.31 0.36 0.37 0.40 0.47
0.50 0.54 0.56 0.59 0.61 0.60 0.60 0.61 0.59 0.57 0.57 0.57 0.58 0.57 0.57 0.57 0.55 0.53 0.53 0.54 0.51 0.48 0.45 0.42 0.40 0.39 0.38 0.36 0.36 0.37 0.36 0.32 0.35 0.38 0.31 0.24 0.20 0.23 0.29 0.29 0.33 0.35 0.38
0.51 0.54 0.56 0.58 0.60 0.62 0.64 0.61 0.60 0.58 0.59 0.59 0.56 0.54 0.53 0.50 0.53 0.54 0.55 0.53 0.52 0.48 0.46 0.43 0.41 0.39 0.38 0.37 0.38 0.39 0.37 0.36 0.31 0.34 0.35 0.35 0.33 0.24 0.19 0.26 0.28 0.33 0.33
0.48 0.50 0.53 0.58 0.63 0.65 0.64 0.62 0.61 0.60 0.61 0.59 0.57 0.53 0.51 0.51 0.53 0.53 0.51 0.50 0.50 0.46 0.43 0.41 0.40 0.38 0.38 0.37 0.36 0.36 0.35 0.36 0.33 0.31 0.31 0.31 0.31 0.34 0.27 0.19 0.20 0.25 0.29
0.50 0.53 0.57 0.60 0.62 0.66 0.64 0.60 0.58 0.57 0.58 0.56 0.55 0.52 0.49 0.49 0.48 0.47 0.44 0.44 0.45 0.44 0.43 0.42 0.40 0.39 0.36 0.36 0.35 0.36 0.35 0.34 0.34 0.34 0.33 0.31 0.28 0.27 0.27 0.24 0.23 0.22 0.24
0.46 0.50 0.52 0.57 0.61 0.62 0.61 0.58 0.55 0.53 0.54 0.54 0.53 0.52 0.51 0.48 0.44 0.43 0.41 0.39 0.39 0.38 0.38 0.37 0.36 0.34 0.33 0.33 0.34 0.35 0.34 0.34 0.34 0.34 0.32 0.34 0.33 0.33 0.31 0.27 0.25 0.24 0.26
0.49 0.53 0.57 0.59 0.57 0.57 0.57 0.55 0.54 0.53 0.53 0.54 0.54 0.52 0.49 0.47 0.44 0.42 0.41 0.39 0.38 0.36 0.36 0.35 0.35 0.32 0.33 0.34 0.34 0.35 0.33 0.34 0.33 0.33 0.34 0.34 0.33 0.33 0.33 0.31 0.28 0.22 0.24
0.51 0.54 0.52 0.50 0.51 0.53 0.54 0.55 0.52 0.52 0.53 0.53 0.50 0.49 0.48 0.46 0.44 0.42 0.39 0.35 0.33 0.32 0.29 0.27 0.28 0.27 0.29 0.30 0.31 0.32 0.31 0.33 0.32 0.32 0.34 0.34 0.34 0.35 0.36 0.37 0.35 0.30 0.22
0.49 0.47 0.48 0.48 0.51 0.53 0.55 0.52 0.52 0.51 0.51 0.49 0.47 0.46 0.44 0.43 0.40 0.36 0.32 0.30 0.27 0.25 0.22 0.21 0.23 0.24 0.26 0.28 0.30 0.30 0.30 0.29 0.31 0.32 0.33 0.33 0.34 0.35 0.37 0.38 0.39 0.38 0.33
0.41 0.43 0.46 0.48 0.50 0.52 0.51 0.51 0.51 0.48 0.46 0.47 0.47 0.45 0.42 0.39 0.35 0.30 0.28 0.23 0.21 0.21 0.19 0.19 0.22 0.24 0.25 0.26 0.25 0.24 0.24 0.22 0.25 0.28 0.30 0.30 0.33 0.34 0.36 0.38 0.39 0.39 0.38
0.43 0.44 0.48 0.49 0.50 0.50 0.50 0.49 0.48 0.47 0.47 0.48 0.49 0.43 0.39 0.33 0.29 0.25 0.23 0.22 0.21 0.22 0.19 0.17 0.18 0.19 0.19 0.20 0.20 0.18 0.19 0.18 0.18 0.21 0.23 0.25 0.28 0.31 0.34 0.37 0.39 0.41 0.41
0.44 0.45 0.47 0.50 0.50 0.49 0.49 0.47 0.48 0.49 0.49 0.47 0.41 0.35 0.31 0.28 0.26 0.23 0.23 0.20 0.18 0.18 0.14 0.12 0.13 0.15 0.16 0.15 0.15 0.14 0.13 0.13 0.12 0.13 0.15 0.17 0.20 0.22 0.28 0.34 0.39 0.43 0.44
0.42 0.47 0.51 0.51 0.50 0.49 0.47 0.48 0.49 0.49 0.45 0.41 0.36 0.29 0.26 0.23 0.22 0.22 0.20 0.17 0.15 0.16 0.13 0.11 0.13 0.14 0.15 0.15 0.14 0.14 0.12 0.11 0.11 0.12 0.13 0.14 0.15 0.15 0.18 0.20 0.26 0.37 0.43
0.43 0.47 0.50 0.54 0.52 0.49 0.49 0.55 0.50 0.45 0.43 0.36 0.31 0.25 0.21 0.20 0.20 0.19 0.18 0.17 0.15 0.15 0.14 0.13 0.13 0.14 0.15 0.16 0.13 0.14 0.13 0.12 0.13 0.13 0.14 0.15 0.16 0.14 0.16 0.16 0.19 0.24 0.26
0.42 0.48 0.55 0.58 0.52 0.49 0.58 0.51 0.48 0.43 0.37 0.32 0.24 0.21 0.19 0.18 0.18 0.18 0.18 0.17 0.15 0.16 0.15 0.14 0.14 0.14 0.16 0.16 0.16 0.15 0.14 0.14 0.13 0.14 0.15 0.16 0.16 0.15 0.14 0.15 0.17 0.19 0.19
0.47 0.52 0.55 0.55 0.52 0.57 0.56 0.47 0.42 0.38 0.32 0.26 0.20 0.18 0.17 0.15 0.15 0.16 0.16 0.17 0.17 0.16 0.16 0.16 0.15 0.15 0.17 0.16 0.15 0.15 0.15 0.15 0.15 0.15 0.16 0.16 0.17 0.18 0.15 0.15 0.15 0.15 0.18
0.52 0.54 0.55 0.56 0.57 0.55 0.48 0.43 0.38 0.33 0.25 0.19 0.16 0.16 0.15 0.14 0.14 0.15 0.15 0.16 0.16 0.17 0.17 0.17 0.16 0.15 0.17 0.18 0.15 0.15 0.16 0.16 0.17 0.17 0.18 0.17 0.16 0.18 0.17 0.15 0.14 0.14 0.15
0.55 0.57 0.59 0.57 0.54 0.46 0.43 0.38 0.31 0.23 0.18 0.14 0.14 0.15 0.15 0.14 0.14 0.15 0.15 0.16 0.17 0.17 0.18 0.19 0.18 0.15 0.15 0.17 0.17 0.15 0.15 0.17 0.17 0.18 0.19 0.20 0.18 0.20 0.19 0.15 0.14 0.14 0.14
0.58 0.56 0.57 0.54 0.47 0.42 0.36 0.29 0.21 0.17 0.14 0.14 0.14 0.15 0.15 0.15 0.16 0.17 0.17 0.18 0.18 0.18 0.18 0.18 0.17 0.15 0.12 0.14 0.14 0.13 0.13 0.13 0.16 0.18 0.18 0.20 0.19 0.19 0.19 0.16 0.15 0.13 0.14
0.56 0.54 0.52 0.46 0.40 0.33 0.28 0.22 0.16 0.13 0.15 0.16 0.15 0.16 0.16 0.16 0.18 0.18 0.19 0.19 0.18 0.17 0.17 0.16 0.16 0.14 0.13 0.12 0.13 0.13 0.12 0.12 0.13 0.14 0.15 0.18 0.19 0.18 0.18 0.18 0.16 0.14 0.14
0.50 0.47 0.43 0.37 0.32 0.28 0.24 0.17 0.13 0.15 0.16 0.15 0.15 0.15 0.16 0.18 0.18 0.17 0.17 0.17 0.17 0.16 0.16 0.15 0.14 0.13 0.11 0.11 0.12 0.13 0.13 0.13 0.12 0.12 0.13 0.15 0.16 0.17 0.17 0.17 0.16 0.15 0.14
0.43 0.41 0.35 0.30 0.27 0.24 0.22 0.14 0.14 0.15 0.15 0.15 0.14 0.14 0.16 0.16 0.16 0.16 0.15 0.15 0.15 0.14 0.13 0.12 0.11 0.10 0.10 0.11 0.11 0.12 0.13 0.13 0.13 0.13 0.13 0.14 0.15 0.16 0.16 0.16 0.16 0.15 0.13
0.37 0.35 0.30 0.26 0.23 0.24 0.18 0.15 0.15 0.15 0.13 0.11 0.12 0.13 0.13 0.14 0.15 0.15 0.13 0.11 0.11 0.10 0.09 0.09 0.10 0.10 0.10 0.11 0.12 0.13 0.14 0.14 0.14 0.13 0.13 0.14 0.15 0.15 0.16 0.16 0.15 0.15 0.14
0.34 0.32 0.27 0.24 0.23 0.22 0.13 0.13 0.12 0.11 0.10 0.10 0.11 0.12 0.13 0.15 0.15 0.15 0.13 0.13 0.14 0.14 0.13 0.12 0.13 0.12 0.11 0.12 0.14 0.15 0.14 0.14 0.14 0.14 0.14 0.13 0.14 0.15 0.15 0.15 0.15 0.15 0.15
0.32 0.28 0.25 0.23 0.22 0.15 0.11 0.11 0.11 0.11 0.10 0.09 0.11 0.12 0.14 0.16 0.16 0.16 0.16 0.19 0.18 0.17 0.17 0.16 0.15 0.15 0.15 0.15 0.16 0.15 0.14 0.14 0.14 0.14 0.13 0.14 0.15 0.16 0.16 0.15 0.15 0.15 0.14

GFSMW_prec_pwat_174.txt.gz
Precipitable_Water
0.54 0.59 0.62 0.64 0.63 0.63 0.62 0.62 0.62 0.65 0.67 0.64 0.60 0.60 0.58 0.60 0.60 0.58 0.56 0.54 0.53 0.52 0.50 0.48 0.47 0.46 0.43 0.42 0.41 0.38 0.35 0.32 0.32 0.27 0.26 0.30 0.39 0.39 0.36 0.37 0.35 0.34 0.33
0.54 0.59 0.61 0.61 0.62 0.62 0.63 0.64 0.64 0.65 0.65 0.64 0.62 0.61 0.60 0.59 0.58 0.58 0.56 0.54 0.52 0.51 0.49 0.47 0.46 0.45 0.43 0.41 0.40 0.39 0.35 0.35 0.36 0.29 0.28 0.22 0.26 0.33 0.33 0.35 0.33 0.32 0.32
0.53 0.56 0.58 0.59 0.61 0.61 0.63 0.64 0.65 0.66 0.66 0.66 0.64 0.61 0.60 0.59 0.58 0.57 0.54 0.53 0.52 0.51 0.49 0.47 0.44 0.41 0.41 0.38 0.39 0.38 0.36 0.35 0.38 0.38 0.32 0.25 0.22 0.25 0.30 0.31 0.31 0.30 0.30
0.48 0.51 0.53 0.55 0.57 0.59 0.62 0.64 0.66 0.66 0.65 0.66 0.63 0.61 0.57 0.53 0.53 0.52 0.52 0.51 0.49 0.48 0.47 0.43 0.39 0.36 0.36 0.36 0.36 0.37 0.37 0.38 0.35 0.39 0.41 0.40 0.36 0.27 0.23 0.28 0.30 0.30 0.31
0.44 0.47 0.52 0.56 0.59 0.62 0.64 0.67 0.67 0.64 0.63 0.61 0.58 0.54 0.50 0.51 0.51 0.50 0.48 0.47 0.46 0.44 0.41 0.38 0.37 0.36 0.35 0.35 0.34 0.33 0.34 0.35 0.33 0.33 0.34 0.35 0.36 0.36 0.31 0.25 0.25 0.29 0.31
0.46 0.49 0.53 0.56 0.59 0.63 0.64 0.66 0.63 0.60 0.59 0.57 0.55 0.51 0.48 0.46 0.45 0.46 0.45 0.43 0.39 0.37 0.36 0.36 0.35 0.36 0.36 0.35 0.34 0.33 0.31 0.31 0.31 0.32 0.33 0.32 0.30 0.29 0.29 0.27 0.28 0.28 0.29
0.43 0.46 0.50 0.53 0.56 0.58 0.59 0.58 0.58 0.55 0.55 0.53 0.52 0.50 0.48 0.47 0.45 0.44 0.41 0.37 0.35 0.32 0.32 0.32 0.30 0.30 0.31 0.32 0.30 0.29 0.29 0.28 0.28 0.29 0.29 0.31 0.30 0.32 0.31 0.30 0.29 0.27 0.29
0.41 0.44 0.48 0.50 0.53 0.53 0.54 0.55 0.54 0.51 0.51 0.50 0.49 0.49 0.49 0.48 0.45 0.42 0.38 0.35 0.31 0.29 0.30 0.29 0.29 0.27 0.26 0.27 0.25 0.22 0.23 0.26 0.27 0.28 0.28 0.29 0.30 0.32 0.31 0.29 0.28 0.24 0.26
0.39 0.41 0.45 0.49 0.49 0.49 0.50 0.51 0.50 0.50 0.51 0.50 0.50 0.48 0.48 0.46 0.42 0.38 0.35 0.31 0.30 0.28 0.27 0.25 0.22 0.22 0.21 0.21 0.18 0.18 0.19 0.22 0.23 0.23 0.25 0.25 0.27 0.29 0.30 0.31 0.31 0.27 0.22
0.42 0.44 0.46 0.46 0.49 0.49 0.49 0.51 0.52 0.50 0.50 0.50 0.49 0.48 0.47 0.44 0.40 0.38 0.36 0.31 0.25 0.23 0.21 0.19 0.18 0.15 0.14 0.14 0.13 0.12 0.13 0.14 0.15 0.15 0.15 0.16 0.18 0.21 0.23 0.25 0.26 0.26 0.23
0.40 0.42 0.44 0.46 0.48 0.50 0.50 0.51 0.51 0.51 0.50 0.50 0.49 0.48 0.44 0.45 0.42 0.36 0.31 0.23 0.20 0.17 0.15 0.15 0.15 0.14 0.12 0.12 0.10 0.10 0.10 0.10 0.11 0.12 0.12 0.12 0.13 0.14 0.15 0.16 0.17 0.16 0.16
0.41 0.43 0.44 0.45 0.46 0.48 0.50 0.50 0.52 0.51 0.52 0.51 0.50 0.47 0.47 0.43 0.37 0.31 0.25 0.19 0.13 0.14 0.15 0.15 0.14 0.14 0.14 0.12 0.11 0.11 0.12 0.12 0.12 0.13 0.14 0.14 0.13 0.13 0.14 0.14 0.14 0.14 0.15
0.39 0.40 0.42 0.42 0.44 0.47 0.50 0.52 0.52 0.51 0.53 0.53 0.50 0.49 0.46 0.40 0.31 0.25 0.20 0.14 0.12 0.12 0.14 0.14 0.14 0.13 0.14 0.13 0.12 0.13 0.13 0.14 0.14 0.15 0.15 0.16 0.14 0.13 0.14 0.14 0.13 0.14 0.14
0.35 0.37 0.40 0.43 0.45 0.48 0.50 0.52 0.52 0.53 0.56 0.52 0.47 0.48 0.41 0.33 0.26 0.20 0.16 0.14 0.12 0.12 0.13 0.15 0.15 0.15 0.14 0.14 0.14 0.14 0.15 0.15 0.15 0.16 0.17 0.17 0.16 0.15 0.15 0.14 0.13 0.14 0.13
0.34 0.38 0.40 0.42 0.45 0.46 0.50 0.52 0.51 0.58 0.53 0.46 0.48 0.43 0.36 0.29 0.23 0.17 0.16 0.14 0.13 0.13 0.14 0.14 0.14 0.15 0.16 0.16 0.15 0.15 0.16 0.17 0.17 0.17 0.18 0.20 0.20 0.17 0.18 0.16 0.16 0.17 0.15
0.37 0.40 0.41 0.43 0.44 0.47 0.50 0.51 0.57 0.52 0.49 0.50 0.44 0.37 0.29 0.27 0.21 0.17 0.16 0.15 0.14 0.14 0.14 0.14 0.15 0.15 0.16 0.17 0.16 0.15 0.15 0.15 0.16 0.15 0.16 0.18 0.19 0.16 0.16 0.16 0.16 0.17 0.16
0.42 0.44 0.45 0.47 0.49 0.51 0.53 0.54 0.53 0.50 0.53 0.47 0.38 0.30 0.26 0.21 0.18 0.17 0.15 0.15 0.15 0.15 0.15 0.15 0.15 0.15 0.14 0.14 0.14 0.13 0.13 0.13 0.14 0.14 0.14 0.15 0.17 0.18 0.15 0.14 0.14 0.14 0.15
0.44 0.45 0.47 0.48 0.51 0.52 0.53 0.56 0.53 0.54 0.49 0.41 0.32 0.25 0.19 0.16 0.16 0.16 0.15 0.15 0.16 0.16 0.16 0.15 0.13 0.13 0.14 0.13 0.12 0.12 0.12 0.12 0.13 0.14 0.15 0.14 0.15 0.16 0.15 0.14 0.13 0.13 0.14
0.47 0.47 0.49 0.50 0.51 0.52 0.56 0.57 0.55 0.51 0.43 0.32 0.22 0.17 0.15 0.14 0.15 0.15 0.16 0.16 0.16 0.16 0.16 0.14 0.13 0.12 0.12 0.14 0.12 0.12 0.12 0.12 0.12 0.13 0.15 0.14 0.14 0.16 0.16 0.13 0.14 0.13 0.13
0.49 0.49 0.52 0.54 0.54 0.56 0.60 0.54 0.51 0.43 0.33 0.25 0.16 0.15 0.14 0.14 0.14 0.15 0.16 0.17 0.17 0.16 0.16 0.15 0.14 0.12 0.11 0.14 0.14 0.12 0.12 0.11 0.11 0.12 0.12 0.14 0.15 0.16 0.16 0.14 0.14 0.13 0.14
0.52 0.54 0.53 0.52 0.54 0.58 0.55 0.51 0.42 0.32 0.27 0.19 0.15 0.14 0.15 0.14 0.15 0.15 0.16 0.16 0.16 0.16 0.16 0.15 0.14 0.13 0.12 0.13 0.14 0.14 0.12 0.12 0.11 0.11 0.11 0.13 0.13 0.15 0.16 0.16 0.15 0.15 0.15
0.53 0.55 0.55 0.54 0.56 0.55 0.51 0.42 0.32 0.28 0.22 0.16 0.14 0.14 0.15 0.16 0.16 0.16 0.17 0.17 0.16 0.16 0.15 0.15 0.14 0.13 0.11 0.13 0.14 0.15 0.14 0.13 0.12 0.11 0.12 0.13 0.13 0.13 0.15 0.16 0.17 0.16 0.15
0.55 0.54 0.50 0.48 0.49 0.49 0.43 0.32 0.27 0.25 0.18 0.15 0.14 0.15 0.16 0.16 0.17 0.16 0.16 0.16 0.17 0.16 0.16 0.14 0.13 0.11 0.11 0.13 0.14 0.16 0.16 0.15 0.13 0.13 0.13 0.13 0.12 0.12 0.12 0.16 0.17 0.16 0.16
0.50 0.48 0.44 0.44 0.43 0.40 0.34 0.29 0.26 0.21 0.16 0.14 0.14 0.15 0.15 0.16 0.17 0.18 0.18 0.17 0.17 0.16 0.15 0.14 0.12 0.11 0.12 0.14 0.15 0.16 0.16 0.16 0.14 0.13 0.12 0.12 0.12 0.11 0.11 0.14 0.16 0.17 0.17
0.49 0.46 0.43 0.41 0.37 0.34 0.30 0.27 0.25 0.20 0.15 0.14 0.15 0.15 0.16 0.16 0.17 0.17 0.17 0.17 0.17 0.17 0.14 0.12 0.12 0.13 0.13 0.15 0.17 0.17 0.16 0.15 0.14 0.13 0.12 0.11 0.11 0.10 0.11 0.14 0.17 0.18 0.17
0.47 0.45 0.43 0.40 0.35 0.31 0.29 0.26 0.25 0.19 0.15 0.14 0.14 0.15 0.15 0.16 0.16 0.15 0.15 0.16 0.15 0.14 0.15 0.16 0.16 0.16 0.16 0.18 0.19 0.18 0.19 0.18 0.16 0.13 0.12 0.11 0.11 0.11 0.13 0.15 0.17 0.18 0.17

GFSMW_prec_pwat_177.txt.gz
Precipitable_Water
0.60 0.62 0.63 0.64 0.64 0.65 0.65 0.65 0.67 0.69 0.69 0.66 0.63 0.63 0.61 0.62 0.60 0.59 0.59 0.58 0.57 0.55 0.52 0.49 0.47 0.46 0.43 0.42 0.42 0.39 0.37 0.35 0.35 0.32 0.33 0.39 0.46 0.41 0.40 0.38 0.37 0.34 0.35
0.55 0.58 0.62 0.64 0.65 0.64 0.65 0.65 0.66 0.69 0.70 0.70 0.68 0.67 0.64 0.63 0.62 0.62 0.59 0.58 0.56 0.53 0.49 0.46 0.45 0.45 0.43 0.42 0.40 0.38 0.35 0.34 0.35 0.31 0.31 0.26 0.32 0.39 0.39 0.37 0.34 0.33 0.35
0.53 0.58 0.61 0.63 0.65 0.65 0.65 0.64 0.66 0.68 0.70 0.70 0.67 0.64 0.64 0.62 0.58 0.55 0.52 0.51 0.50 0.49 0.47 0.45 0.43 0.42 0.40 0.37 0.36 0.36 0.35 0.32 0.35 0.34 0.31 0.28 0.28 0.32 0.38 0.37 0.37 0.34 0.34
0.53 0.56 0.57 0.59 0.61 0.62 0.65 0.65 0.66 0.67 0.66 0.65 0.61 0.58 0.55 0.51 0.52 0.51 0.49 0.47 0.47 0.46 0.44 0.41 0.39 0.38 0.37 0.35 0.36 0.36 0.35 0.35 0.31 0.34 0.35 0.36 0.35 0.28 0.27 0.35 0.37 0.37 0.36
0.47 0.49 0.52 0.55 0.58 0.61 0.62 0.64 0.65 0.65 0.65 0.64 0.61 0.57 0.53 0.51 0.51 0.49 0.46 0.44 0.43 0.42 0.39 0.37 0.38 0.37 0.37 0.36 0.34 0.32 0.32 0.32 0.30 0.30 0.31 0.32 0.33 0.31 0.28 0.24 0.27 0.34 0.38
0.45 0.49 0.54 0.57 0.59 0.63 0.65 0.66 0.65 0.61 0.61 0.59 0.56 0.52 0.49 0.46 0.45 0.44 0.42 0.41 0.39 0.35 0.35 0.34 0.35 0.35 0.35 0.32 0.32 0.32 0.31 0.30 0.30 0.30 0.30 0.28 0.26 0.25 0.26 0.25 0.26 0.27 0.32
0.44 0.47 0.50 0.52 0.55 0.57 0.60 0.61 0.61 0.59 0.60 0.56 0.51 0.48 0.47 0.46 0.44 0.44 0.41 0.36 0.31 0.30 0.30 0.32 0.32 0.32 0.32 0.28 0.25 0.25 0.25 0.26 0.26 0.25 0.27 0.28 0.28 0.29 0.28 0.27 0.26 0.25 0.28
0.43 0.45 0.48 0.50 0.52 0.54 0.55 0.56 0.56 0.54 0.53 0.51 0.49 0.49 0.48 0.46 0.44 0.41 0.38 0.32 0.29 0.30 0.33 0.32 0.29 0.26 0.22 0.20 0.20 0.21 0.22 0.24 0.23 0.23 0.24 0.24 0.25 0.27 0.27 0.25 0.23 0.19 0.22
0.38 0.40 0.43 0.49 0.50 0.49 0.50 0.51 0.51 0.51 0.51 0.50 0.50 0.49 0.48 0.46 0.42 0.39 0.35 0.32 0.33 0.31 0.28 0.24 0.20 0.18 0.16 0.13 0.13 0.13 0.13 0.14 0.14 0.15 0.16 0.16 0.19 0.21 0.21 0.22 0.20 0.17 0.13
0.40 0.42 0.44 0.48 0.48 0.48 0.49 0.50 0.52 0.51 0.52 0.52 0.51 0.50 0.49 0.45 0.41 0.39 0.34 0.31 0.29 0.25 0.21 0.18 0.14 0.13 0.12 0.12 0.11 0.11 0.12 0.12 0.13 0.14 0.13 0.13 0.15 0.16 0.17 0.17 0.17 0.16 0.14
0.43 0.43 0.44 0.47 0.49 0.50 0.51 0.52 0.52 0.52 0.52 0.52 0.52 0.51 0.49 0.44 0.42 0.36 0.31 0.28 0.23 0.21 0.17 0.15 0.14 0.12 0.12 0.12 0.12 0.12 0.13 0.13 0.14 0.15 0.15 0.14 0.15 0.15 0.16 0.16 0.16 0.15 0.15
0.43 0.43 0.45 0.48 0.49 0.49 0.49 0.50 0.52 0.53 0.54 0.53 0.52 0.51 0.50 0.45 0.40 0.35 0.27 0.21 0.20 0.18 0.16 0.15 0.15 0.14 0.12 0.13 0.13 0.13 0.14 0.14 0.14 0.15 0.16 0.15 0.15 0.15 0.15 0.15 0.15 0.14 0.15
0.42 0.41 0.41 0.44 0.46 0.46 0.48 0.49 0.52 0.53 0.54 0.54 0.53 0.52 0.46 0.44 0.39 0.30 0.22 0.19 0.16 0.16 0.15 0.15 0.14 0.14 0.14 0.14 0.15 0.15 0.16 0.16 0.17 0.18 0.18 0.18 0.17 0.16 0.16 0.16 0.16 0.17 0.17
0.39 0.37 0.37 0.41 0.43 0.46 0.47 0.49 0.51 0.53 0.53 0.54 0.55 0.49 0.46 0.42 0.33 0.25 0.19 0.16 0.16 0.15 0.15 0.16 0.16 0.15 0.15 0.15 0.16 0.17 0.17 0.17 0.17 0.18 0.19 0.20 0.17 0.17 0.17 0.16 0.16 0.17 0.16
0.32 0.33 0.37 0.40 0.43 0.46 0.48 0.50 0.51 0.52 0.54 0.55 0.53 0.45 0.48 0.38 0.28 0.22 0.17 0.15 0.15 0.15 0.15 0.15 0.16 0.17 0.17 0.16 0.15 0.15 0.15 0.15 0.15 0.16 0.17 0.19 0.18 0.17 0.17 0.16 0.16 0.16 0.14
0.34 0.38 0.40 0.42 0.43 0.45 0.47 0.49 0.51 0.51 0.53 0.55 0.47 0.49 0.44 0.33 0.25 0.21 0.16 0.15 0.15 0.15 0.15 0.15 0.14 0.15 0.16 0.14 0.13 0.13 0.13 0.14 0.14 0.14 0.15 0.17 0.17 0.14 0.15 0.15 0.16 0.16 0.14
0.42 0.42 0.42 0.45 0.48 0.48 0.50 0.51 0.53 0.54 0.59 0.50 0.49 0.48 0.39 0.29 0.24 0.18 0.15 0.14 0.14 0.15 0.15 0.15 0.15 0.13 0.14 0.14 0.13 0.13 0.13 0.13 0.13 0.13 0.14 0.15 0.17 0.17 0.13 0.14 0.14 0.15 0.16
0.46 0.45 0.45 0.47 0.49 0.50 0.51 0.53 0.55 0.58 0.53 0.50 0.49 0.42 0.32 0.25 0.18 0.14 0.14 0.14 0.15 0.15 0.15 0.14 0.13 0.14 0.14 0.13 0.13 0.12 0.13 0.13 0.13 0.14 0.14 0.13 0.15 0.17 0.15 0.14 0.13 0.14 0.16
0.46 0.46 0.47 0.48 0.49 0.50 0.52 0.54 0.53 0.54 0.54 0.50 0.43 0.33 0.24 0.18 0.17 0.15 0.15 0.16 0.16 0.16 0.16 0.14 0.12 0.12 0.13 0.14 0.13 0.13 0.13 0.14 0.13 0.14 0.15 0.14 0.14 0.14 0.14 0.14 0.14 0.14 0.15
0.47 0.47 0.49 0.49 0.50 0.53 0.55 0.53 0.55 0.56 0.51 0.49 0.34 0.25 0.19 0.17 0.16 0.17 0.16 0.16 0.17 0.16 0.16 0.14 0.14 0.12 0.12 0.14 0.14 0.13 0.12 0.12 0.12 0.13 0.14 0.14 0.14 0.14 0.14 0.13 0.14 0.14 0.16
0.48 0.50 0.50 0.50 0.50 0.53 0.56 0.55 0.56 0.53 0.51 0.38 0.28 0.20 0.17 0.15 0.16 0.17 0.17 0.17 0.16 0.17 0.16 0.15 0.14 0.13 0.12 0.13 0.14 0.14 0.12 0.12 0.12 0.12 0.12 0.14 0.14 0.14 0.14 0.13 0.12 0.13 0.17
0.48 0.51 0.51 0.52 0.54 0.55 0.55 0.55 0.53 0.51 0.41 0.31 0.23 0.17 0.15 0.15 0.16 0.16 0.16 0.16 0.16 0.16 0.15 0.15 0.14 0.14 0.12 0.13 0.15 0.15 0.14 0.14 0.13 0.13 0.14 0.14 0.13 0.12 0.13 0.13 0.12 0.12 0.15
0.50 0.53 0.53 0.51 0.49 0.51 0.53 0.51 0.48 0.42 0.32 0.27 0.18 0.16 0.15 0.16 0.16 0.16 0.16 0.16 0.17 0.16 0.16 0.15 0.15 0.14 0.12 0.13 0.15 0.16 0.16 0.15 0.15 0.15 0.14 0.13 0.12 0.11 0.12 0.12 0.12 0.13 0.16
0.52 0.53 0.51 0.48 0.46 0.49 0.50 0.47 0.42 0.33 0.28 0.21 0.17 0.15 0.15 0.16 0.17 0.17 0.18 0.18 0.17 0.16 0.16 0.16 0.15 0.14 0.12 0.14 0.16 0.17 0.18 0.17 0.16 0.14 0.14 0.13 0.12 0.11 0.11 0.12 0.13 0.15 0.17
0.53 0.52 0.49 0.48 0.49 0.49 0.46 0.42 0.34 0.29 0.24 0.18 0.16 0.15 0.16 0.16 0.16 0.17 0.17 0.17 0.18 0.18 0.17 0.16 0.16 0.13 0.13 0.15 0.17 0.18 0.17 0.18 0.16 0.15 0.15 0.14 0.12 0.11 0.12 0.12 0.13 0.16 0.18
0.53 0.52 0.48 0.47 0.48 0.47 0.41 0.36 0.33 0.28 0.22 0.17 0.15 0.15 0.15 0.16 0.16 0.16 0.16 0.19 0.19 0.19 0.19 0.17 0.15 0.15 0.16 0.17 0.18 0.19 0.19 0.18 0.17 0.15 0.14 0.13 0.12 0.12 0.12 0.13 0.14 0.17 0.18

GFSMW_prec_pwat_180.txt.gz
Precipitable_Water
0.66 0.69 0.71 0.72 0.69 0.70 0.68 0.69 0.71 0.75 0.75 0.73 0.71 0.70 0.67 0.66 0.64 0.64 0.63 0.61 0.61 0.59 0.56 0.53 0.51 0.49 0.46 0.44 0.43 0.40 0.38 0.37 0.37 0.37 0.38 0.44 0.49 0.46 0.44 0.42 0.41 0.41 0.41
0.60 0.66 0.69 0.71 0.69 0.68 0.69 0.70 0.73 0.75 0.76 0.75 0.73 0.72 0.70 0.68 0.66 0.65 0.62 0.60 0.57 0.53 0.49 0.48 0.46 0.45 0.43 0.41 0.39 0.38 0.36 0.36 0.36 0.31 0.32 0.31 0.38 0.41 0.41 0.42 0.41 0.40 0.42
0.59 0.63 0.66 0.68 0.69 0.67 0.69 0.70 0.73 0.76 0.76 0.75 0.72 0.70 0.68 0.65 0.61 0.58 0.55 0.54 0.52 0.50 0.47 0.45 0.44 0.42 0.39 0.37 0.38 0.38 0.37 0.33 0.36 0.37 0.33 0.29 0.29 0.31 0.38 0.39 0.41 0.41 0.43
0.57 0.61 0.64 0.66 0.67 0.69 0.71 0.70 0.71 0.72 0.73 0.73 0.68 0.65 0.60 0.55 0.56 0.54 0.53 0.51 0.49 0.47 0.44 0.43 0.41 0.40 0.40 0.39 0.37 0.38 0.36 0.34 0.30 0.33 0.34 0.36 0.34 0.27 0.27 0.34 0.36 0.38 0.40
0.55 0.57 0.60 0.62 0.65 0.66 0.66 0.68 0.68 0.68 0.71 0.70 0.67 0.62 0.57 0.56 0.55 0.52 0.48 0.46 0.44 0.42 0.40 0.39 0.39 0.38 0.37 0.37 0.37 0.34 0.33 0.33 0.31 0.30 0.30 0.32 0.33 0.31 0.27 0.23 0.28 0.34 0.38
0.49 0.52 0.56 0.58 0.59 0.62 0.65 0.66 0.66 0.67 0.67 0.66 0.63 0.60 0.56 0.53 0.49 0.46 0.42 0.42 0.40 0.38 0.37 0.36 0.37 0.38 0.35 0.32 0.30 0.30 0.30 0.29 0.29 0.30 0.28 0.27 0.26 0.25 0.26 0.24 0.26 0.27 0.32
0.45 0.48 0.51 0.53 0.56 0.59 0.63 0.65 0.65 0.64 0.65 0.64 0.62 0.58 0.55 0.50 0.47 0.45 0.42 0.37 0.34 0.32 0.34 0.36 0.35 0.31 0.26 0.24 0.25 0.25 0.25 0.25 0.24 0.25 0.25 0.27 0.26 0.26 0.25 0.23 0.21 0.21 0.29
0.44 0.44 0.47 0.51 0.55 0.58 0.62 0.62 0.62 0.60 0.62 0.60 0.57 0.53 0.51 0.49 0.47 0.44 0.40 0.34 0.33 0.35 0.35 0.32 0.28 0.23 0.20 0.19 0.18 0.17 0.17 0.18 0.17 0.18 0.19 0.20 0.20 0.21 0.21 0.19 0.18 0.16 0.20
0.41 0.42 0.44 0.47 0.50 0.54 0.55 0.56 0.55 0.55 0.55 0.56 0.54 0.53 0.52 0.49 0.46 0.44 0.37 0.36 0.35 0.33 0.30 0.25 0.22 0.19 0.17 0.16 0.15 0.15 0.15 0.16 0.17 0.16 0.16 0.16 0.18 0.18 0.19 0.20 0.18 0.16 0.14
0.42 0.44 0.44 0.47 0.49 0.51 0.52 0.52 0.52 0.52 0.55 0.56 0.57 0.53 0.51 0.48 0.47 0.42 0.38 0.35 0.34 0.30 0.25 0.21 0.19 0.17 0.16 0.16 0.16 0.16 0.17 0.17 0.17 0.18 0.17 0.17 0.18 0.18 0.19 0.19 0.19 0.19 0.16
0.45 0.47 0.50 0.53 0.53 0.54 0.54 0.53 0.53 0.54 0.55 0.57 0.55 0.53 0.50 0.47 0.45 0.41 0.37 0.35 0.31 0.26 0.23 0.19 0.17 0.15 0.15 0.16 0.16 0.16 0.17 0.17 0.18 0.19 0.18 0.17 0.18 0.17 0.17 0.18 0.18 0.17 0.17
0.48 0.49 0.52 0.52 0.53 0.52 0.54 0.54 0.54 0.55 0.57 0.56 0.55 0.54 0.51 0.47 0.44 0.39 0.36 0.32 0.27 0.25 0.21 0.19 0.17 0.15 0.16 0.16 0.16 0.16 0.17 0.18 0.18 0.20 0.20 0.18 0.19 0.19 0.19 0.19 0.19 0.19 0.19
0.44 0.48 0.49 0.48 0.48 0.48 0.50 0.53 0.54 0.54 0.56 0.56 0.56 0.53 0.51 0.48 0.44 0.38 0.32 0.28 0.25 0.22 0.19 0.19 0.18 0.16 0.16 0.17 0.17 0.18 0.18 0.19 0.19 0.20 0.21 0.19 0.19 0.19 0.19 0.18 0.18 0.18 0.18
0.36 0.40 0.44 0.47 0.48 0.47 0.45 0.50 0.52 0.56 0.56 0.57 0.55 0.53 0.53 0.46 0.44 0.36 0.28 0.25 0.23 0.20 0.20 0.19 0.18 0.17 0.17 0.17 0.18 0.18 0.17 0.17 0.17 0.18 0.19 0.18 0.17 0.17 0.17 0.17 0.17 0.18 0.17
0.33 0.32 0.33 0.37 0.42 0.43 0.45 0.49 0.53 0.56 0.57 0.56 0.53 0.55 0.53 0.47 0.42 0.31 0.25 0.23 0.21 0.20 0.19 0.19 0.20 0.19 0.18 0.16 0.15 0.15 0.16 0.15 0.15 0.17 0.18 0.18 0.16 0.14 0.15 0.15 0.17 0.17 0.16
0.38 0.40 0.39 0.40 0.41 0.45 0.49 0.52 0.54 0.55 0.56 0.54 0.54 0.56 0.50 0.47 0.39 0.28 0.23 0.21 0.21 0.19 0.18 0.17 0.17 0.18 0.16 0.12 0.12 0.15 0.15 0.15 0.14 0.14 0.17 0.18 0.17 0.16 0.15 0.14 0.15 0.16 0.16
0.42 0.45 0.44 0.45 0.47 0.48 0.50 0.52 0.53 0.56 0.56 0.55 0.56 0.56 0.51 0.45 0.35 0.27 0.22 0.18 0.16 0.17 0.16 0.16 0.16 0.15 0.14 0.13 0.12 0.13 0.15 0.15 0.15 0.14 0.15 0.16 0.17 0.16 0.15 0.15 0.15 0.17 0.17
0.46 0.49 0.50 0.49 0.51 0.52 0.53 0.55 0.56 0.55 0.55 0.54 0.57 0.53 0.51 0.42 0.31 0.22 0.16 0.14 0.16 0.16 0.16 0.17 0.17 0.16 0.13 0.13 0.12 0.13 0.16 0.15 0.15 0.16 0.16 0.16 0.16 0.15 0.14 0.14 0.14 0.16 0.17
0.50 0.51 0.50 0.50 0.50 0.51 0.53 0.53 0.52 0.54 0.54 0.55 0.54 0.53 0.50 0.37 0.24 0.18 0.15 0.15 0.16 0.16 0.16 0.15 0.14 0.14 0.14 0.13 0.12 0.15 0.17 0.17 0.16 0.16 0.16 0.16 0.16 0.14 0.14 0.15 0.14 0.14 0.15
0.50 0.49 0.50 0.51 0.51 0.51 0.52 0.51 0.52 0.54 0.54 0.54 0.54 0.52 0.43 0.30 0.22 0.17 0.16 0.17 0.17 0.17 0.17 0.15 0.14 0.13 0.14 0.14 0.13 0.13 0.13 0.12 0.14 0.15 0.16 0.15 0.15 0.14 0.13 0.14 0.14 0.12 0.13
0.48 0.50 0.50 0.49 0.51 0.53 0.52 0.53 0.56 0.55 0.57 0.59 0.53 0.48 0.35 0.25 0.21 0.19 0.18 0.17 0.18 0.17 0.17 0.15 0.15 0.13 0.13 0.15 0.13 0.12 0.13 0.13 0.13 0.14 0.15 0.16 0.14 0.14 0.13 0.13 0.12 0.11 0.13
0.49 0.51 0.49 0.51 0.53 0.53 0.54 0.52 0.53 0.58 0.60 0.55 0.49 0.37 0.29 0.22 0.20 0.19 0.19 0.18 0.17 0.17 0.17 0.16 0.15 0.14 0.13 0.13 0.14 0.14 0.14 0.14 0.14 0.15 0.17 0.17 0.13 0.13 0.13 0.14 0.11 0.12 0.15
0.50 0.52 0.51 0.51 0.52 0.52 0.50 0.49 0.53 0.56 0.54 0.49 0.41 0.31 0.25 0.20 0.19 0.19 0.19 0.18 0.18 0.18 0.18 0.17 0.16 0.16 0.15 0.15 0.14 0.15 0.15 0.15 0.17 0.18 0.16 0.14 0.13 0.12 0.14 0.12 0.11 0.14 0.15
0.50 0.52 0.52 0.50 0.49 0.51 0.51 0.50 0.52 0.53 0.51 0.43 0.32 0.27 0.20 0.18 0.18 0.19 0.19 0.19 0.19 0.19 0.19 0.18 0.17 0.18 0.17 0.15 0.17 0.17 0.18 0.17 0.17 0.16 0.16 0.16 0.14 0.13 0.13 0.14 0.14 0.15 0.15
0.52 0.53 0.52 0.51 0.50 0.51 0.52 0.53 0.53 0.50 0.44 0.35 0.29 0.24 0.19 0.17 0.18 0.19 0.19 0.20 0.21 0.21 0.19 0.19 0.19 0.18 0.16 0.16 0.18 0.19 0.19 0.20 0.20 0.18 0.18 0.17 0.16 0.15 0.15 0.15 0.14 0.16 0.17
0.53 0.53 0.54 0.52 0.51 0.50 0.51 0.53 0.51 0.46 0.38 0.31 0.26 0.21 0.18 0.17 0.18 0.18 0.19 0.21 0.22 0.22 0.21 0.22 0.21 0.21 0.18 0.17 0.17 0.18 0.19 0.19 0.19 0.17 0.17 0.17 0.17 0.15 0.15 0.15 0.16 0.17 0.19

GFSMW_prec_pwat_186.txt.gz
Precipitable_Water
0.86 0.94 0.91 0.87 0.84 0.86 0.86 0.88 0.86 0.85 0.81 0.77 0.76 0.75 0.72 0.73 0.72 0.72 0.72 0.70 0.69 0.68 0.66 0.65 0.61 0.61 0.57 0.51 0.47 0.44 0.40 0.43 0.40 0.35 0.32 0.41 0.50 0.55 0.53 0.49 0.47 0.45 0.46
0.80 0.86 0.87 0.83 0.81 0.82 0.86 0.88 0.87 0.82 0.80 0.81 0.80 0.80 0.76 0.75 0.74 0.73 0.71 0.71 0.69 0.66 0.62 0.59 0.58 0.53 0.51 0.46 0.43 0.40 0.35 0.40 0.41 0.31 0.33 0.36 0.51 0.51 0.50 0.49 0.46 0.44 0.45
0.68 0.72 0.72 0.75 0.74 0.76 0.81 0.85 0.87 0.83 0.81 0.81 0.80 0.79 0.76 0.72 0.70 0.70 0.69 0.67 0.63 0.61 0.58 0.57 0.54 0.50 0.46 0.41 0.39 0.38 0.36 0.35 0.37 0.37 0.31 0.25 0.29 0.39 0.48 0.46 0.44 0.45 0.44
0.69 0.70 0.69 0.69 0.68 0.72 0.79 0.82 0.84 0.81 0.80 0.79 0.76 0.72 0.70 0.68 0.69 0.67 0.64 0.61 0.58 0.56 0.56 0.53 0.49 0.46 0.43 0.38 0.38 0.39 0.36 0.33 0.28 0.31 0.32 0.33 0.31 0.21 0.29 0.42 0.41 0.45 0.44
0.65 0.67 0.67 0.68 0.68 0.71 0.74 0.77 0.81 0.81 0.80 0.77 0.79 0.77 0.73 0.70 0.67 0.63 0.58 0.57 0.56 0.54 0.51 0.50 0.47 0.41 0.41 0.40 0.37 0.33 0.32 0.31 0.30 0.24 0.23 0.23 0.30 0.26 0.22 0.22 0.29 0.35 0.40
0.63 0.66 0.66 0.66 0.64 0.69 0.72 0.74 0.75 0.74 0.76 0.73 0.75 0.72 0.67 0.65 0.62 0.59 0.56 0.55 0.53 0.51 0.48 0.45 0.42 0.38 0.35 0.35 0.33 0.31 0.28 0.26 0.25 0.24 0.22 0.19 0.20 0.18 0.18 0.18 0.19 0.19 0.29
0.53 0.58 0.57 0.57 0.60 0.61 0.64 0.66 0.66 0.65 0.70 0.70 0.72 0.73 0.70 0.66 0.62 0.57 0.53 0.49 0.46 0.45 0.43 0.42 0.38 0.34 0.32 0.31 0.28 0.25 0.23 0.21 0.20 0.20 0.21 0.19 0.17 0.18 0.17 0.16 0.16 0.22 0.33
0.50 0.52 0.54 0.55 0.55 0.58 0.61 0.63 0.63 0.63 0.67 0.68 0.68 0.70 0.68 0.66 0.62 0.56 0.50 0.45 0.44 0.44 0.44 0.39 0.34 0.31 0.29 0.27 0.25 0.22 0.22 0.22 0.20 0.19 0.20 0.19 0.19 0.20 0.20 0.16 0.19 0.19 0.23
0.51 0.54 0.57 0.58 0.56 0.56 0.57 0.60 0.60 0.61 0.66 0.68 0.69 0.70 0.70 0.65 0.57 0.53 0.48 0.45 0.46 0.43 0.42 0.38 0.33 0.28 0.26 0.25 0.24 0.22 0.21 0.21 0.20 0.20 0.21 0.21 0.21 0.21 0.21 0.21 0.20 0.17 0.16
0.55 0.56 0.59 0.58 0.58 0.56 0.57 0.61 0.64 0.61 0.65 0.67 0.67 0.65 0.63 0.60 0.56 0.51 0.48 0.47 0.44 0.42 0.38 0.36 0.31 0.27 0.25 0.24 0.23 0.22 0.22 0.21 0.21 0.21 0.21 0.21 0.22 0.22 0.22 0.23 0.22 0.22 0.19
0.57 0.56 0.57 0.57 0.59 0.59 0.60 0.64 0.64 0.62 0.61 0.62 0.62 0.61 0.59 0.58 0.54 0.50 0.51 0.49 0.44 0.40 0.38 0.33 0.28 0.26 0.24 0.23 0.21 0.21 0.21 0.23 0.23 0.22 0.21 0.21 0.22 0.21 0.21 0.22 0.22 0.21 0.21
0.49 0.51 0.52 0.54 0.58 0.61 0.63 0.65 0.65 0.61 0.62 0.61 0.61 0.60 0.59 0.58 0.54 0.52 0.51 0.48 0.43 0.40 0.36 0.31 0.27 0.25 0.24 0.22 0.20 0.21 0.22 0.22 0.22 0.21 0.19 0.20 0.21 0.20 0.21 0.21 0.20 0.20 0.21
0.45 0.47 0.52 0.53 0.56 0.57 0.60 0.65 0.65 0.64 0.65 0.66 0.62 0.60 0.58 0.55 0.52 0.49 0.49 0.47 0.43 0.39 0.36 0.29 0.26 0.24 0.22 0.22 0.22 0.22 0.22 0.22 0.22 0.21 0.17 0.17 0.18 0.17 0.19 0.19 0.18 0.19 0.21
0.43 0.46 0.48 0.51 0.51 0.55 0.56 0.55 0.62 0.63 0.63 0.62 0.61 0.59 0.56 0.55 0.51 0.49 0.49 0.47 0.44 0.39 0.35 0.30 0.26 0.24 0.22 0.22 0.23 0.22 0.20 0.19 0.20 0.18 0.16 0.14 0.13 0.12 0.15 0.16 0.16 0.18 0.19
0.37 0.43 0.42 0.46 0.51 0.50 0.51 0.51 0.54 0.61 0.63 0.58 0.58 0.58 0.56 0.53 0.50 0.49 0.50 0.48 0.43 0.38 0.34 0.29 0.26 0.23 0.22 0.23 0.23 0.21 0.19 0.18 0.18 0.18 0.16 0.15 0.15 0.14 0.12 0.12 0.13 0.14 0.16
0.42 0.42 0.43 0.46 0.52 0.53 0.51 0.55 0.55 0.52 0.55 0.54 0.53 0.54 0.53 0.51 0.50 0.51 0.51 0.47 0.44 0.39 0.33 0.28 0.26 0.23 0.23 0.23 0.22 0.19 0.18 0.17 0.17 0.16 0.17 0.16 0.16 0.16 0.15 0.13 0.14 0.13 0.12
0.48 0.44 0.44 0.53 0.57 0.55 0.56 0.57 0.57 0.58 0.56 0.56 0.55 0.57 0.56 0.55 0.53 0.52 0.49 0.46 0.42 0.36 0.31 0.29 0.27 0.21 0.15 0.18 0.18 0.18 0.17 0.14 0.15 0.16 0.16 0.16 0.16 0.15 0.16 0.16 0.16 0.16 0.14
0.54 0.53 0.52 0.53 0.57 0.61 0.60 0.63 0.61 0.61 0.60 0.58 0.59 0.60 0.58 0.55 0.52 0.51 0.47 0.47 0.41 0.33 0.29 0.23 0.19 0.16 0.13 0.13 0.15 0.16 0.15 0.14 0.15 0.15 0.15 0.15 0.15 0.13 0.15 0.15 0.15 0.16 0.15
0.64 0.52 0.51 0.55 0.59 0.59 0.61 0.59 0.59 0.60 0.59 0.58 0.59 0.59 0.58 0.56 0.53 0.49 0.47 0.46 0.38 0.31 0.23 0.19 0.17 0.16 0.13 0.12 0.12 0.15 0.14 0.15 0.14 0.15 0.15 0.16 0.15 0.13 0.15 0.16 0.15 0.15 0.15
0.56 0.53 0.55 0.54 0.55 0.57 0.59 0.56 0.55 0.56 0.54 0.56 0.57 0.57 0.58 0.55 0.52 0.50 0.49 0.42 0.36 0.27 0.21 0.18 0.19 0.19 0.15 0.12 0.11 0.16 0.18 0.18 0.17 0.17 0.16 0.15 0.15 0.13 0.14 0.16 0.15 0.14 0.13
0.57 0.59 0.56 0.54 0.54 0.56 0.56 0.53 0.55 0.54 0.57 0.58 0.57 0.56 0.57 0.55 0.56 0.53 0.47 0.41 0.33 0.25 0.20 0.18 0.19 0.20 0.18 0.12 0.11 0.14 0.15 0.15 0.15 0.16 0.16 0.17 0.16 0.13 0.13 0.15 0.13 0.12 0.12
0.60 0.55 0.56 0.55 0.57 0.58 0.57 0.54 0.53 0.57 0.58 0.59 0.60 0.60 0.60 0.59 0.56 0.50 0.45 0.38 0.29 0.22 0.19 0.17 0.17 0.17 0.19 0.16 0.11 0.12 0.14 0.15 0.14 0.14 0.17 0.17 0.16 0.13 0.13 0.15 0.12 0.13 0.15
0.66 0.57 0.55 0.54 0.55 0.56 0.57 0.53 0.54 0.56 0.56 0.57 0.57 0.58 0.59 0.58 0.54 0.49 0.42 0.33 0.25 0.21 0.19 0.17 0.16 0.16 0.17 0.16 0.16 0.11 0.12 0.13 0.15 0.17 0.19 0.18 0.15 0.13 0.14 0.15 0.12 0.15 0.16
0.62 0.59 0.55 0.54 0.52 0.55 0.57 0.56 0.55 0.56 0.56 0.55 0.55 0.56 0.55 0.54 0.51 0.46 0.38 0.30 0.23 0.21 0.20 0.18 0.18 0.18 0.17 0.16 0.16 0.14 0.12 0.13 0.15 0.16 0.16 0.16 0.15 0.16 0.17 0.16 0.16 0.16 0.16
0.61 0.59 0.56 0.55 0.55 0.56 0.57 0.58 0.56 0.56 0.55 0.56 0.55 0.54 0.53 0.51 0.47 0.45 0.37 0.30 0.26 0.24 0.21 0.21 0.21 0.19 0.17 0.18 0.18 0.16 0.14 0.13 0.14 0.15 0.16 0.15 0.15 0.16 0.17 0.19 0.19 0.17 0.17
0.60 0.57 0.56 0.56 0.56 0.58 0.58 0.59 0.59 0.57 0.55 0.54 0.54 0.54 0.53 0.52 0.47 0.39 0.36 0.34 0.29 0.26 0.27 0.26 0.25 0.25 0.25 0.24 0.22 0.20 0.18 0.18 0.17 0.17 0.16 0.16 0.17 0.18 0.19 0.19 0.18 0.18 0.18